Location: Beneden-Haastrecht
(52.0012°N, 4.7557°E)
Time: 05:12:10
(UTC+00:00)

FALCON 9 DEB - Pass Details

Date: 24 October 2020
Orbit: 427 x 438 km, 53.0° (Epoch: 25 November)

Event Time Altitude Azimuth Distance (km) Brightness Sun altitude
Rises 17:10:01 0° 254° (WSW) 2,395 9.4 -7.2°
Reaches altitude 10° 17:12:08 10° 254° (WSW) 1,528 7.6 -7.5°
Maximum altitude 17:15:34 88° 165° (SSE) 435 3.1 -8.0°
Enters shadow 17:18:44 12° 77° (ENE) 1,420 5.0 -8.5°
